494  
NZUS01 KABQ 220110  
RWRABQ  
NEW MEXICO REGIONAL WEATHER ROUNDUP  
NATIONAL WEATHER SERVICE ALBUQUERQUE NM  
600 PM MST MON JAN 21 2019  
 
-----NORTHERN NEW MEXICO AND NEARBY AREAS-----  
 
 
CITY SKY/WX TMP DP RH WIND PRES REMARKS
 
ALBUQUERQUE FAIR 52 20 28 W16G25 29.64R  
BELEN FAIR 56 11 16 SW29G37 29.64R  
SOCORRO FAIR 58 13 16 SW14G23 29.61F  
 
CITY SKY/WX TMP DP RH WIND PRES REMARKS
 
SANTA FE CLOUDY 46 24 42 W22G28 29.62R  
LOS ALAMOS CLOUDY 42 22 44 SW21G35 29.66R  
TAOS MOCLDY 38 26 62 W28G37 29.64R  
ANGEL FIRE N/A 35 21 56 W25G35 29.62R WCI 23  
FARMINGTON MOCLDY 37 19 48 W12 29.67R  
GRANTS CLOUDY 38 27 66 W13G25 29.75R  
GALLUP CLOUDY 31 27 85 SW12 29.73F WCI 22  
FLAGSTAFF CLOUDY 28 13 53 W9G17 29.80R WCI 19  
DURANGO MOCLDY 29 22 75 W6 29.66R WCI 23  
 
CITY SKY/WX TMP DP RH WIND PRES REMARKS
 
ALAMOSA MOCLDY 29 26 89 SW18 29.59R WCI 16  
DENVER MOCLDY 36 26 67 S7 29.46R  
CLAYTON CLEAR 51 19 28 S16 29.51S  
RATON MOCLDY 51 17 26 SW28G38 29.50F  
LAS VEGAS CLEAR 47 17 30 SW21G33 29.56R  
CLINES CORNERS MOCLDY 46 16 30 W32G46 29.63R  
SANTA ROSA FAIR 58 19 21 S20G29 29.54F  
TUCUMCARI CLOUDY 64 19 17 SW25G37 29.50F  
CLOVIS (AFB) CLOUDY 60 19 20 S18 29.62S  
CLOVIS MOCLDY 59 21 23 SW20 29.61S  
AMARILLO CLOUDY 61 22 22 S20 29.55F  
 
-----SOUTHERN NEW MEXICO AND NEARBY AREAS-----  
 
 
CITY SKY/WX TMP DP RH WIND PRES REMARKS
 
T OR C PTCLDY 62 13 14 SW23G37 29.65F  
DEMING PTCLDY 62 16 16 SW17G25 29.73S  
TUCSON PTCLDY 58 37 45 NW12G22 29.85R  
EL PASO PTCLDY 69 15 12 W29G36 29.72S  
LAS CRUCES PTCLDY 66 20 17 SW18G25 29.74F  
 
CITY SKY/WX TMP DP RH WIND PRES REMARKS
 
ALAMOGORDO PTCLDY 64 19 17 SW22 29.70F  
ROSWELL MOCLDY 65 18 16 SW13 29.62R  
CARLSBAD CLOUDY 69 19 15 SW9 29.65S  
HOBBS PTCLDY 66 12 12 S8 29.69S  
 
CLICK HERE TO GO TO PREVIOUS BULLETINS.

The Nexlab NM Page Main Text Page